CSN451 ZSPD-RJTT

Flight info

Callsign CSN451
Flight time 2h 41m
Altitude 31000
Route LAMEN A593 SADLI Y590 BEDAR Y591 FUE Y23 ARTIC Y71 XAC
Aircraft A320/M-SDE3GHIJ2J3J5M1RVWXYZ/LB2D1

Departure

Time 2026-05-08 06:24
Airport Shanghai Pudong International Airport (ZSPD)

Arrival

Time 2026-05-08 09:05
Airport Tokyo Haneda International Airport (RJTT)
Time Latitude Longitude Altitude Speed Heading
2026-05-08 03:41 31.14902 121.80891 21 ft 0 kts 252°
2026-05-08 06:09 31.14905 121.80903 21 ft 2 kts 251°
2026-05-08 06:09 31.14910 121.80920 21 ft 2 kts 252°
2026-05-08 06:10 31.14915 121.80936 21 ft 2 kts 251°
2026-05-08 06:10 31.14920 121.80952 21 ft 2 kts 252°
2026-05-08 06:10 31.14924 121.80969 21 ft 2 kts 251°
2026-05-08 06:10 31.14929 121.80986 21 ft 2 kts 252°
2026-05-08 06:11 31.14932 121.80996 21 ft 1 kts 252°
2026-05-08 06:11 31.14938 121.81004 21 ft 1 kts 188°
2026-05-08 06:11 31.14945 121.81004 21 ft 1 kts 152°
2026-05-08 06:11 31.14950 121.81001 21 ft 0 kts 160°
2026-05-08 06:15 31.14928 121.81009 21 ft 5 kts 165°
2026-05-08 06:16 31.14884 121.81024 21 ft 7 kts 162°
2026-05-08 06:16 31.14830 121.81045 21 ft 9 kts 161°
2026-05-08 06:16 31.14794 121.81084 21 ft 7 kts 93°
2026-05-08 06:16 31.14809 121.81149 21 ft 8 kts 72°
2026-05-08 06:17 31.14853 121.81305 21 ft 10 kts 72°
2026-05-08 06:17 31.14845 121.81353 21 ft 7 kts 148°
2026-05-08 06:17 31.14784 121.81378 21 ft 12 kts 162°
2026-05-08 06:18 31.14694 121.81412 21 ft 14 kts 162°
2026-05-08 06:18 31.14594 121.81449 21 ft 15 kts 162°
2026-05-08 06:18 31.14487 121.81490 21 ft 16 kts 162°
2026-05-08 06:18 31.14373 121.81532 21 ft 17 kts 162°
2026-05-08 06:19 31.14254 121.81577 21 ft 18 kts 162°
2026-05-08 06:19 31.14127 121.81625 21 ft 20 kts 162°
2026-05-08 06:19 31.13980 121.81680 21 ft 22 kts 162°
2026-05-08 06:19 31.13833 121.81736 21 ft 21 kts 162°
2026-05-08 06:20 31.13688 121.81791 21 ft 21 kts 162°
2026-05-08 06:20 31.13547 121.81845 21 ft 21 kts 162°
2026-05-08 06:20 31.13406 121.81898 21 ft 20 kts 162°
2026-05-08 06:20 31.13267 121.81950 21 ft 20 kts 161°
2026-05-08 06:21 31.13133 121.82001 21 ft 20 kts 161°
2026-05-08 06:21 31.12997 121.82052 21 ft 20 kts 162°
2026-05-08 06:21 31.12863 121.82103 21 ft 20 kts 162°
2026-05-08 06:21 31.12732 121.82153 21 ft 19 kts 162°
2026-05-08 06:22 31.12630 121.82192 21 ft 7 kts 161°
2026-05-08 06:22 31.12599 121.82235 21 ft 8 kts 95°
2026-05-08 06:22 31.12610 121.82285 21 ft 5 kts 71°
2026-05-08 06:22 31.12623 121.82331 21 ft 6 kts 71°
2026-05-08 06:23 31.12638 121.82379 21 ft 5 kts 59°
2026-05-08 06:23 31.12675 121.82394 21 ft 6 kts 347°
2026-05-08 06:23 31.12743 121.82370 21 ft 27 kts 342°
2026-05-08 06:23 31.13158 121.82213 22 ft 96 kts 342°
2026-05-08 06:24 31.13994 121.81898 22 ft 153 kts 342°
2026-05-08 06:24 31.15144 121.81454 156 ft 186 kts 343°
2026-05-08 06:24 31.16395 121.81036 763 ft 186 kts 353°
2026-05-08 06:24 31.17676 121.80994 1454 ft 188 kts
2026-05-08 06:25 31.18952 121.81177 2253 ft 183 kts 11°
2026-05-08 06:25 31.20203 121.81409 2831 ft 189 kts 14°
2026-05-08 06:25 31.21563 121.81712 3221 ft 206 kts 14°
2026-05-08 06:25 31.23049 121.82032 3546 ft 229 kts 13°
2026-05-08 06:26 31.24687 121.82365 4029 ft 247 kts 12°
2026-05-08 06:26 31.26419 121.82701 4728 ft 255 kts 11°
2026-05-08 06:26 31.28163 121.83032 5561 ft 258 kts 10°
2026-05-08 06:26 31.29946 121.83366 6382 ft 261 kts 10°
2026-05-08 06:27 31.31736 121.83701 7196 ft 265 kts
2026-05-08 06:27 31.33560 121.84042 8001 ft 269 kts
2026-05-08 06:27 31.35414 121.84421 8810 ft 272 kts 14°
2026-05-08 06:27 31.37072 121.85447 9573 ft 278 kts 41°
2026-05-08 06:28 31.38230 121.87263 10339 ft 285 kts 57°
2026-05-08 06:28 31.39245 121.89298 10807 ft 300 kts 57°
2026-05-08 06:28 31.40332 121.91471 11169 ft 318 kts 57°
2026-05-08 06:28 31.41500 121.93784 11515 ft 336 kts 56°
2026-05-08 06:29 31.42714 121.96179 11833 ft 354 kts 56°
2026-05-08 06:29 31.44002 121.98717 12129 ft 371 kts 56°
2026-05-08 06:29 31.45349 122.01379 12519 ft 384 kts 57°
2026-05-08 06:29 31.46686 122.04119 13112 ft 390 kts 58°
2026-05-08 06:30 31.48008 122.06865 13703 ft 396 kts 58°
2026-05-08 06:30 31.49373 122.09704 14263 ft 402 kts 57°
2026-05-08 06:30 31.50757 122.12576 14806 ft 408 kts 57°
2026-05-08 06:30 31.52155 122.15473 15339 ft 414 kts 57°
2026-05-08 06:31 31.53579 122.18426 15718 ft 419 kts 57°
2026-05-08 06:31 31.55017 122.21413 15847 ft 421 kts 57°
2026-05-08 06:31 31.56459 122.24406 15849 ft 421 kts 57°
2026-05-08 06:31 31.57880 122.27359 15855 ft 421 kts 57°
2026-05-08 06:32 31.59321 122.30357 15857 ft 421 kts 57°
2026-05-08 06:32 31.60761 122.33356 15865 ft 420 kts 58°
2026-05-08 06:32 31.62005 122.36437 15865 ft 423 kts 66°
2026-05-08 06:32 31.62881 122.39757 15861 ft 426 kts 75°
2026-05-08 06:33 31.63413 122.43163 15864 ft 427 kts 79°
2026-05-08 06:33 31.63848 122.46587 15852 ft 428 kts 79°
2026-05-08 06:33 31.64274 122.50045 15859 ft 429 kts 79°
2026-05-08 06:33 31.64709 122.53505 15865 ft 428 kts 79°
2026-05-08 06:34 31.65156 122.56962 15853 ft 428 kts 79°
2026-05-08 06:34 31.65604 122.60384 15859 ft 428 kts 79°
2026-05-08 06:34 31.66061 122.63854 15853 ft 428 kts 78°
2026-05-08 06:34 31.66518 122.67318 16048 ft 435 kts 79°
2026-05-08 06:35 31.66975 122.70805 16662 ft 437 kts 79°
2026-05-08 06:35 31.67436 122.74329 17219 ft 441 kts 79°
2026-05-08 06:35 31.67903 122.77889 17695 ft 446 kts 79°
2026-05-08 06:35 31.68390 122.81541 18148 ft 452 kts 79°
2026-05-08 06:36 31.68884 122.85194 18625 ft 457 kts 79°
2026-05-08 06:36 31.69377 122.88859 19106 ft 461 kts 79°
2026-05-08 06:36 31.69875 122.92564 19794 ft 458 kts 80°
2026-05-08 06:36 31.70364 122.96213 20370 ft 459 kts 80°
2026-05-08 06:37 31.70866 122.99959 20783 ft 464 kts 80°
2026-05-08 06:37 31.71362 123.03694 21189 ft 470 kts 80°
2026-05-08 06:37 31.71867 123.07500 21633 ft 474 kts 81°
2026-05-08 06:37 31.72370 123.11284 22083 ft 476 kts 81°
2026-05-08 06:38 31.72878 123.15135 22498 ft 480 kts 81°
2026-05-08 06:38 31.73389 123.19013 22956 ft 483 kts 81°
2026-05-08 06:38 31.73902 123.22926 23416 ft 486 kts 81°
2026-05-08 06:38 31.74417 123.26861 23863 ft 489 kts 81°
2026-05-08 06:39 31.74931 123.30795 24325 ft 491 kts 81°
2026-05-08 06:39 31.75452 123.34776 24740 ft 495 kts 81°
2026-05-08 06:39 31.75968 123.38740 25160 ft 498 kts 81°
2026-05-08 06:39 31.76489 123.42749 25561 ft 501 kts 81°
2026-05-08 06:40 31.76855 123.46835 25948 ft 503 kts 90°
2026-05-08 06:40 31.76582 123.50921 26319 ft 503 kts 102°
2026-05-08 06:40 31.75648 123.54856 26717 ft 501 kts 112°
2026-05-08 06:40 31.74423 123.58649 27242 ft 499 kts 115°
2026-05-08 06:41 31.73151 123.62415 27791 ft 497 kts 115°
2026-05-08 06:41 31.71882 123.66203 28314 ft 496 kts 115°
2026-05-08 06:41 31.70650 123.69956 28820 ft 494 kts 114°
2026-05-08 06:41 31.69428 123.73732 29293 ft 493 kts 114°
2026-05-08 06:42 31.68232 123.77457 29721 ft 493 kts 114°
2026-05-08 06:42 31.67027 123.81212 30066 ft 495 kts 114°
2026-05-08 06:42 31.65811 123.84997 30405 ft 497 kts 114°
2026-05-08 06:42 31.64589 123.88795 30735 ft 499 kts 114°
2026-05-08 06:43 31.63369 123.92603 31062 ft 501 kts 112°
2026-05-08 06:43 31.62443 123.96533 31131 ft 506 kts 103°
2026-05-08 06:43 31.62022 124.00623 31134 ft 508 kts 92°
2026-05-08 06:43 31.62134 124.04747 31136 ft 508 kts 83°
2026-05-08 06:44 31.63668 124.12808 31141 ft 508 kts 73°
2026-05-08 06:44 31.65565 124.20800 31141 ft 508 kts 73°
2026-05-08 06:45 31.67392 124.28767 31139 ft 508 kts 73°
2026-05-08 06:45 31.69177 124.36769 31133 ft 509 kts 73°
2026-05-08 06:46 31.70953 124.44799 31132 ft 509 kts 74°
2026-05-08 06:46 31.72719 124.52827 31133 ft 510 kts 73°
2026-05-08 06:47 31.74489 124.60887 31134 ft 511 kts 73°
2026-05-08 06:47 31.76250 124.68940 31123 ft 511 kts 74°
2026-05-08 06:48 31.78001 124.77003 31128 ft 511 kts 74°
2026-05-08 06:48 31.79759 124.85081 31128 ft 512 kts 74°
2026-05-08 06:49 31.81476 124.93188 31125 ft 512 kts 77°
2026-05-08 06:49 31.82209 125.01495 31120 ft 513 kts 91°
2026-05-08 06:50 31.81483 125.09784 31120 ft 512 kts 102°
2026-05-08 06:50 31.80091 125.17941 31119 ft 512 kts 103°
2026-05-08 06:51 31.78695 125.26131 31116 ft 511 kts 103°
2026-05-08 06:51 31.77339 125.34298 31116 ft 511 kts 103°
2026-05-08 06:52 31.75991 125.42491 31116 ft 511 kts 103°
2026-05-08 06:52 31.74640 125.50656 31117 ft 511 kts 103°
2026-05-08 06:53 31.73301 125.58820 31115 ft 511 kts 101°
2026-05-08 06:53 31.72853 125.67097 31109 ft 512 kts 88°
2026-05-08 06:54 31.73904 125.75352 31111 ft 512 kts 75°
2026-05-08 06:54 31.75768 125.83398 31113 ft 512 kts 73°
2026-05-08 06:55 31.77622 125.91482 31111 ft 513 kts 74°
2026-05-08 06:55 31.79402 125.99580 31107 ft 513 kts 75°
2026-05-08 06:56 31.81161 126.07667 31106 ft 515 kts 75°
2026-05-08 06:56 31.82925 126.15781 31103 ft 515 kts 75°
2026-05-08 06:57 31.84693 126.23918 31102 ft 515 kts 75°
2026-05-08 06:57 31.86467 126.32113 31097 ft 516 kts 75°
2026-05-08 06:58 31.88225 126.40266 31098 ft 516 kts 75°
2026-05-08 06:58 31.89975 126.48403 31095 ft 517 kts 75°
2026-05-08 06:59 31.91774 126.56599 31093 ft 518 kts 74°
2026-05-08 06:59 31.93578 126.64750 31093 ft 517 kts 75°
2026-05-08 07:00 31.95379 126.72941 31089 ft 518 kts 75°
2026-05-08 07:00 31.97162 126.81097 31090 ft 519 kts 76°
2026-05-08 07:01 31.98955 126.89319 31085 ft 519 kts 75°
2026-05-08 07:01 32.00753 126.97568 31084 ft 520 kts 75°
2026-05-08 07:02 32.02542 127.05802 31085 ft 521 kts 76°
2026-05-08 07:02 32.04636 127.13903 31086 ft 519 kts 68°
2026-05-08 07:03 32.07476 127.21729 31086 ft 519 kts 63°
2026-05-08 07:03 32.10463 127.29469 31081 ft 520 kts 64°
2026-05-08 07:04 32.13431 127.37252 31077 ft 521 kts 64°
2026-05-08 07:04 32.16363 127.45033 31076 ft 522 kts 64°
2026-05-08 07:05 32.19267 127.52798 31076 ft 521 kts 64°
2026-05-08 07:05 32.22183 127.60608 31075 ft 521 kts 64°
2026-05-08 07:06 32.25093 127.68419 31070 ft 522 kts 65°
2026-05-08 07:06 32.28001 127.76286 31069 ft 523 kts 65°
2026-05-08 07:07 32.30907 127.84142 31067 ft 524 kts 64°
2026-05-08 07:07 32.33819 127.92011 31068 ft 524 kts 64°
2026-05-08 07:08 32.36714 127.99860 31062 ft 524 kts 64°
2026-05-08 07:08 32.39628 128.07754 31059 ft 525 kts 64°
2026-05-08 07:09 32.42525 128.15649 31055 ft 524 kts 64°
2026-05-08 07:09 32.45433 128.23589 31055 ft 525 kts 64°
2026-05-08 07:10 32.48314 128.31474 31054 ft 526 kts 64°
2026-05-08 07:10 32.51208 128.39406 31050 ft 526 kts 64°
2026-05-08 07:11 32.54109 128.47377 31051 ft 526 kts 64°
2026-05-08 07:11 32.56987 128.55295 31049 ft 527 kts 64°
2026-05-08 07:12 32.59880 128.63297 31047 ft 527 kts 64°
2026-05-08 07:12 32.62745 128.71240 31040 ft 527 kts 65°
2026-05-08 07:13 32.65607 128.79253 31038 ft 529 kts 66°
2026-05-08 07:13 32.67903 128.87518 31038 ft 531 kts 74°
2026-05-08 07:14 32.69644 128.96013 31037 ft 532 kts 76°
2026-05-08 07:14 32.71350 129.04544 31040 ft 531 kts 76°
2026-05-08 07:15 32.73066 129.13023 31039 ft 532 kts 75°
2026-05-08 07:15 32.74796 129.21535 31039 ft 532 kts 75°
2026-05-08 07:16 32.76537 129.30113 31036 ft 532 kts 75°
2026-05-08 07:16 32.78261 129.38643 31028 ft 533 kts 76°
2026-05-08 07:17 32.79983 129.47205 31024 ft 533 kts 75°
2026-05-08 07:17 32.81697 129.55756 31018 ft 534 kts 75°
2026-05-08 07:18 32.83404 129.64294 31008 ft 534 kts 75°
2026-05-08 07:18 32.85100 129.72887 31003 ft 534 kts 76°
2026-05-08 07:19 32.86771 129.81505 31000 ft 535 kts 76°
2026-05-08 07:19 32.88428 129.90050 31003 ft 536 kts 76°
2026-05-08 07:20 32.90109 129.98718 31008 ft 536 kts 76°
2026-05-08 07:20 32.91770 130.07342 31007 ft 537 kts 76°
2026-05-08 07:21 32.93428 130.15950 31004 ft 536 kts 76°
2026-05-08 07:21 32.95091 130.24615 31003 ft 536 kts 76°
2026-05-08 07:22 32.96732 130.33235 30998 ft 537 kts 77°
2026-05-08 07:22 32.98381 130.41901 30991 ft 537 kts 77°
2026-05-08 07:23 33.00014 130.50536 30991 ft 537 kts 76°
2026-05-08 07:23 33.01645 130.59193 30984 ft 537 kts 77°
2026-05-08 07:24 33.03274 130.67868 30981 ft 537 kts 78°
2026-05-08 07:24 33.04891 130.76550 30986 ft 537 kts 78°
2026-05-08 07:25 33.06499 130.85214 30992 ft 537 kts 78°
2026-05-08 07:26 33.08898 130.98167 30998 ft 537 kts 78°
2026-05-08 07:26 33.10501 131.06850 31000 ft 536 kts 78°
2026-05-08 07:27 33.12129 131.15543 30989 ft 536 kts 78°
2026-05-08 07:27 33.13724 131.24176 30993 ft 535 kts 78°
2026-05-08 07:28 33.15302 131.32838 30988 ft 536 kts 78°
2026-05-08 07:28 33.16872 131.41515 30982 ft 536 kts 78°
2026-05-08 07:29 33.18441 131.50201 30976 ft 538 kts 78°
2026-05-08 07:29 33.19997 131.58882 30972 ft 538 kts 78°
2026-05-08 07:30 33.21605 131.67587 30954 ft 538 kts 76°
2026-05-08 07:30 33.23917 131.76091 30952 ft 538 kts 67°
2026-05-08 07:31 33.26752 131.84351 30949 ft 538 kts 66°
2026-05-08 07:31 33.29601 131.92606 30947 ft 538 kts 66°
2026-05-08 07:32 33.32410 132.00858 30949 ft 538 kts 67°
2026-05-08 07:32 33.35190 132.09108 30942 ft 538 kts 67°
2026-05-08 07:33 33.37971 132.17372 30942 ft 537 kts 67°
2026-05-08 07:33 33.40759 132.25685 30943 ft 537 kts 67°
2026-05-08 07:34 33.43517 132.33928 30941 ft 537 kts 67°
2026-05-08 07:34 33.46295 132.42224 30946 ft 538 kts 68°
2026-05-08 07:35 33.49058 132.50529 30940 ft 538 kts 67°
2026-05-08 07:35 33.51824 132.58853 30938 ft 537 kts 68°
2026-05-08 07:36 33.54569 132.67122 30934 ft 538 kts 68°
2026-05-08 07:36 33.57314 132.75465 30938 ft 539 kts 68°
2026-05-08 07:37 33.60051 132.83787 30937 ft 538 kts 68°
2026-05-08 07:37 33.62791 132.92128 30938 ft 537 kts 68°
2026-05-08 07:38 33.65301 133.00529 30932 ft 536 kts 74°
2026-05-08 07:38 33.67366 133.09074 30928 ft 537 kts 75°
2026-05-08 07:39 33.69411 133.17700 30926 ft 538 kts 75°
2026-05-08 07:39 33.71478 133.26358 30927 ft 538 kts 74°
2026-05-08 07:40 33.73546 133.34972 30924 ft 539 kts 75°
2026-05-08 07:40 33.75605 133.43596 30924 ft 538 kts 74°
2026-05-08 07:41 33.77664 133.52271 30924 ft 540 kts 74°
2026-05-08 07:41 33.79715 133.60925 30925 ft 541 kts 74°
2026-05-08 07:42 33.81756 133.69568 30925 ft 542 kts 75°
2026-05-08 07:42 33.83804 133.78281 30929 ft 543 kts 75°
2026-05-08 07:43 33.85840 133.86986 30924 ft 543 kts 75°
2026-05-08 07:43 33.87884 133.95721 30923 ft 545 kts 75°
2026-05-08 07:44 33.89927 134.04491 30921 ft 546 kts 75°
2026-05-08 07:44 33.91972 134.13297 30908 ft 546 kts 74°
2026-05-08 07:45 33.94002 134.22047 30905 ft 546 kts 74°
2026-05-08 07:45 33.96023 134.30843 30899 ft 547 kts 74°
2026-05-08 07:46 33.98049 134.39659 30885 ft 547 kts 75°
2026-05-08 07:46 34.00057 134.48450 30869 ft 547 kts 75°
2026-05-08 07:47 34.02076 134.57300 30865 ft 547 kts 75°
2026-05-08 07:47 34.04079 134.66104 30848 ft 547 kts 75°
2026-05-08 07:48 34.06073 134.74931 30847 ft 548 kts 76°
2026-05-08 07:48 34.08063 134.83768 30846 ft 548 kts 76°
2026-05-08 07:49 34.10054 134.92621 30841 ft 548 kts 76°
2026-05-08 07:49 34.12069 135.01479 30843 ft 548 kts 76°
2026-05-08 07:50 34.14059 135.10329 30845 ft 548 kts 76°
2026-05-08 07:50 34.16030 135.19202 30843 ft 548 kts 76°
2026-05-08 07:51 34.17999 135.28098 30847 ft 547 kts 76°
2026-05-08 07:51 34.19939 135.36891 30851 ft 546 kts 76°
2026-05-08 07:52 34.21878 135.45723 30858 ft 545 kts 76°
2026-05-08 07:52 34.23813 135.54576 30865 ft 545 kts 76°
2026-05-08 07:53 34.25737 135.63379 30865 ft 545 kts 76°
2026-05-08 07:53 34.27654 135.72209 30863 ft 544 kts 77°
2026-05-08 07:54 34.29561 135.81064 30860 ft 544 kts 77°
2026-05-08 07:54 34.31466 135.89883 30863 ft 543 kts 77°
2026-05-08 07:55 34.33362 135.98712 30861 ft 542 kts 77°
2026-05-08 07:55 34.35245 136.07524 30856 ft 542 kts 77°
2026-05-08 07:56 34.37123 136.16328 30849 ft 541 kts 77°
2026-05-08 07:56 34.38988 136.25104 30845 ft 541 kts 77°
2026-05-08 07:57 34.40859 136.33923 30836 ft 540 kts 77°
2026-05-08 07:57 34.42706 136.42719 30824 ft 541 kts 77°
2026-05-08 07:58 34.44544 136.51480 30811 ft 540 kts 77°
2026-05-08 07:58 34.46386 136.60278 30806 ft 540 kts 77°
2026-05-08 07:59 34.48194 136.68959 30798 ft 540 kts 77°
2026-05-08 07:59 34.50017 136.77774 30797 ft 540 kts 77°
2026-05-08 08:00 34.51838 136.86601 30791 ft 540 kts 78°
2026-05-08 08:00 34.53392 136.95413 30790 ft 538 kts 84°
2026-05-08 08:01 34.53993 137.04393 30791 ft 534 kts 94°
2026-05-08 08:01 34.54028 137.13364 30787 ft 532 kts 94°
2026-05-08 08:02 34.54042 137.22321 30788 ft 532 kts 94°
2026-05-08 08:02 34.54089 137.31299 30782 ft 532 kts 94°
2026-05-08 08:03 34.54142 137.40193 30781 ft 530 kts 94°
2026-05-08 08:03 34.54187 137.49103 30780 ft 531 kts 93°
2026-05-08 08:04 34.54229 137.58006 30777 ft 530 kts 94°
2026-05-08 08:04 34.54259 137.66963 30775 ft 529 kts 95°
2026-05-08 08:05 34.54279 137.75821 30778 ft 528 kts 94°
2026-05-08 08:05 34.54298 137.84715 30778 ft 527 kts 94°
2026-05-08 08:06 34.54311 137.93573 30782 ft 528 kts 94°
2026-05-08 08:06 34.54314 138.02409 30778 ft 527 kts 95°
2026-05-08 08:07 34.54303 138.11290 30774 ft 526 kts 95°
2026-05-08 08:07 34.54278 138.20131 30529 ft 526 kts 95°
2026-05-08 08:07 34.54270 138.24512 30271 ft 523 kts 95°
2026-05-08 08:08 34.54256 138.28912 30004 ft 520 kts 94°
2026-05-08 08:08 34.54317 138.33220 29732 ft 519 kts 90°
2026-05-08 08:08 34.54782 138.37592 29473 ft 522 kts 81°
2026-05-08 08:08 34.55713 138.41826 29207 ft 524 kts 72°
2026-05-08 08:09 34.57119 138.45940 28949 ft 524 kts 63°
2026-05-08 08:09 34.57851 138.47740 28835 ft 524 kts 63°
2026-05-08 08:25 34.58926 138.50264 28671 ft 524 kts 61°
2026-05-08 08:25 34.60631 138.54185 28416 ft 524 kts 61°
2026-05-08 08:26 34.62315 138.58092 28123 ft 525 kts 62°
2026-05-08 08:26 34.63988 138.62054 27684 ft 526 kts 62°
2026-05-08 08:26 34.65629 138.66011 27097 ft 526 kts 63°
2026-05-08 08:26 34.67255 138.69977 26438 ft 526 kts 64°
2026-05-08 08:27 34.68878 138.73944 25847 ft 526 kts 64°
2026-05-08 08:27 34.70407 138.77931 25386 ft 520 kts 70°
2026-05-08 08:27 34.71386 138.82124 24965 ft 513 kts 82°
2026-05-08 08:27 34.71701 138.86386 24487 ft 504 kts 93°
2026-05-08 08:28 34.71667 138.90576 23993 ft 498 kts 96°
2026-05-08 08:28 34.71559 138.94781 23495 ft 494 kts 96°
2026-05-08 08:28 34.71479 138.98908 23002 ft 491 kts 95°
2026-05-08 08:28 34.71438 139.03046 22505 ft 488 kts 95°
2026-05-08 08:29 34.71417 139.07161 22013 ft 485 kts 95°
2026-05-08 08:29 34.71399 139.11243 21519 ft 482 kts 95°
2026-05-08 08:29 34.71379 139.15260 21026 ft 479 kts 95°
2026-05-08 08:29 34.71359 139.19307 20518 ft 476 kts 95°
2026-05-08 08:30 34.71334 139.23297 20024 ft 472 kts 95°
2026-05-08 08:30 34.71310 139.27225 19528 ft 469 kts 95°
2026-05-08 08:30 34.71256 139.35082 18519 ft 462 kts 95°
2026-05-08 08:31 34.71300 139.38969 17996 ft 462 kts 89°
2026-05-08 08:31 34.71944 139.42781 17494 ft 465 kts 73°
2026-05-08 08:31 34.73259 139.46312 17030 ft 463 kts 62°
2026-05-08 08:31 34.74844 139.49695 16774 ft 453 kts 59°
2026-05-08 08:32 34.76431 139.52963 16741 ft 452 kts 59°
2026-05-08 08:32 34.78013 139.56276 16737 ft 452 kts 60°
2026-05-08 08:32 34.79555 139.59587 16740 ft 451 kts 61°
2026-05-08 08:32 34.81084 139.62929 16744 ft 451 kts 61°
2026-05-08 08:33 34.82613 139.66281 16736 ft 452 kts 61°
2026-05-08 08:33 34.84437 139.69367 16723 ft 450 kts 42°
2026-05-08 08:33 34.86963 139.71497 16737 ft 440 kts 20°
2026-05-08 08:33 34.89836 139.72627 16728 ft 432 kts
2026-05-08 08:34 34.92752 139.73468 16290 ft 433 kts
2026-05-08 08:34 34.95666 139.74405 15501 ft 441 kts 11°
2026-05-08 08:34 34.98553 139.75661 14810 ft 443 kts 25°
2026-05-08 08:34 35.00985 139.77881 14291 ft 428 kts 42°
2026-05-08 08:35 35.03002 139.80394 13789 ft 409 kts 45°
2026-05-08 08:35 35.04914 139.82899 13312 ft 390 kts 45°
2026-05-08 08:35 35.06738 139.85207 13087 ft 366 kts 43°
2026-05-08 08:35 35.08460 139.87318 13065 ft 346 kts 45°
2026-05-08 08:36 35.09831 139.89734 13030 ft 342 kts 73°
2026-05-08 08:36 35.10144 139.92509 13038 ft 326 kts 105°
2026-05-08 08:36 35.09422 139.94966 13045 ft 298 kts 136°
2026-05-08 08:36 35.08026 139.96709 13067 ft 284 kts 148°
2026-05-08 08:37 35.06590 139.98407 13061 ft 289 kts 143°
2026-05-08 08:37 35.05278 140.00305 13060 ft 292 kts 137°
2026-05-08 08:37 35.04083 140.02304 13045 ft 296 kts 134°
2026-05-08 08:37 35.02953 140.04431 13040 ft 302 kts 127°
2026-05-08 08:38 35.02152 140.06818 13049 ft 311 kts 114°
2026-05-08 08:38 35.01646 140.09396 13055 ft 314 kts 110°
2026-05-08 08:38 35.01205 140.12016 13051 ft 315 kts 109°
2026-05-08 08:38 35.00763 140.14639 13051 ft 315 kts 109°
2026-05-08 08:39 35.00311 140.17229 13054 ft 316 kts 109°
2026-05-08 08:39 35.00026 140.19922 13052 ft 323 kts 97°
2026-05-08 08:39 35.00124 140.22675 13056 ft 328 kts 90°
2026-05-08 08:39 35.00366 140.25427 13061 ft 329 kts 88°
2026-05-08 08:40 35.00634 140.28221 13059 ft 329 kts 88°
2026-05-08 08:40 35.00885 140.30983 13059 ft 330 kts 89°
2026-05-08 08:40 35.01257 140.33739 13055 ft 333 kts 77°
2026-05-08 08:40 35.02084 140.36368 13058 ft 336 kts 66°
2026-05-08 08:41 35.03136 140.38931 13061 ft 337 kts 64°
2026-05-08 08:41 35.04221 140.41467 13063 ft 337 kts 64°
2026-05-08 08:41 35.05291 140.44009 13058 ft 337 kts 64°
2026-05-08 08:41 35.06484 140.46471 13034 ft 337 kts 46°
2026-05-08 08:42 35.08316 140.48079 13028 ft 322 kts 13°
2026-05-08 08:42 35.10468 140.48364 13032 ft 298 kts 338°
2026-05-08 08:42 35.12233 140.47374 13039 ft 272 kts 308°
2026-05-08 08:42 35.13556 140.45758 13016 ft 268 kts 302°
2026-05-08 08:43 35.14851 140.44106 12998 ft 271 kts 304°
2026-05-08 08:43 35.16223 140.42509 12987 ft 274 kts 307°
2026-05-08 08:43 35.17648 140.40987 12968 ft 275 kts 309°
2026-05-08 08:43 35.19130 140.39478 12715 ft 277 kts 310°
2026-05-08 08:44 35.20630 140.38003 12403 ft 276 kts 311°
2026-05-08 08:44 35.22141 140.36548 12099 ft 275 kts 312°
2026-05-08 08:44 35.23640 140.35117 11803 ft 273 kts 312°
2026-05-08 08:44 35.25141 140.33691 11502 ft 271 kts 312°
2026-05-08 08:45 35.26613 140.32292 11204 ft 269 kts 313°
2026-05-08 08:45 35.28083 140.30898 10906 ft 268 kts 313°
2026-05-08 08:45 35.29556 140.29501 10607 ft 266 kts 313°
2026-05-08 08:45 35.31016 140.28117 10314 ft 264 kts 313°
2026-05-08 08:46 35.32450 140.26758 10019 ft 262 kts 313°
2026-05-08 08:46 35.33894 140.25389 9736 ft 260 kts 313°
2026-05-08 08:46 35.35316 140.24039 9446 ft 258 kts 313°
2026-05-08 08:46 35.36750 140.22743 9154 ft 261 kts 322°
2026-05-08 08:47 35.38542 140.22076 8944 ft 275 kts 351°
2026-05-08 08:47 35.40481 140.22145 8974 ft 283 kts 356°
2026-05-08 08:47 35.42458 140.22314 8975 ft 285 kts 357°
2026-05-08 08:47 35.44430 140.22493 8972 ft 285 kts 357°
2026-05-08 08:48 35.46416 140.22659 8972 ft 285 kts 356°
2026-05-08 08:48 35.48407 140.22815 8965 ft 285 kts 357°
2026-05-08 08:48 35.50377 140.22963 8964 ft 285 kts 356°
2026-05-08 08:48 35.52370 140.23109 8964 ft 285 kts 356°
2026-05-08 08:49 35.54350 140.23256 8976 ft 285 kts 356°
2026-05-08 08:49 35.56340 140.23399 8967 ft 285 kts 356°
2026-05-08 08:49 35.58318 140.23540 8952 ft 285 kts 355°
2026-05-08 08:49 35.60263 140.23392 8959 ft 276 kts 341°
2026-05-08 08:50 35.62065 140.22751 8975 ft 271 kts 333°
2026-05-08 08:50 35.63837 140.21959 8975 ft 270 kts 332°
2026-05-08 08:50 35.65601 140.21156 8972 ft 270 kts 332°
2026-05-08 08:50 35.67384 140.20355 8956 ft 270 kts 333°
2026-05-08 08:51 35.69147 140.19557 8969 ft 267 kts 327°
2026-05-08 08:51 35.70548 140.18248 8953 ft 246 kts 296°
2026-05-08 08:51 35.71213 140.16362 8931 ft 239 kts 282°
2026-05-08 08:51 35.71718 140.14406 8699 ft 242 kts 283°
2026-05-08 08:52 35.72241 140.12463 8408 ft 241 kts 283°
2026-05-08 08:52 35.72782 140.10507 8123 ft 239 kts 284°
2026-05-08 08:52 35.73314 140.08598 7840 ft 238 kts 284°
2026-05-08 08:52 35.73856 140.06670 7551 ft 236 kts 284°
2026-05-08 08:53 35.74391 140.04765 7276 ft 234 kts 284°
2026-05-08 08:53 35.74918 140.02895 7006 ft 233 kts 285°
2026-05-08 08:53 35.75449 140.00996 6941 ft 240 kts 285°
2026-05-08 08:53 35.75996 139.99049 6932 ft 241 kts 285°
2026-05-08 08:54 35.76547 139.97098 6927 ft 241 kts 285°
2026-05-08 08:54 35.77094 139.95155 6923 ft 240 kts 285°
2026-05-08 08:54 35.77617 139.93288 6812 ft 242 kts 285°
2026-05-08 08:54 35.78180 139.91284 6502 ft 241 kts 286°
2026-05-08 08:55 35.78725 139.89331 6213 ft 239 kts 286°
2026-05-08 08:55 35.79263 139.87415 5950 ft 237 kts 286°
2026-05-08 08:55 35.79811 139.85460 5914 ft 241 kts 286°
2026-05-08 08:55 35.80356 139.83508 5606 ft 242 kts 286°
2026-05-08 08:56 35.80877 139.81564 5331 ft 239 kts 283°
2026-05-08 08:56 35.81253 139.79581 5064 ft 235 kts 278°
2026-05-08 08:56 35.81537 139.77628 4893 ft 227 kts 277°
2026-05-08 08:56 35.81801 139.75764 4854 ft 219 kts 277°
2026-05-08 08:57 35.82045 139.73891 4723 ft 221 kts 274°
2026-05-08 08:57 35.82130 139.72015 4462 ft 219 kts 269°
2026-05-08 08:57 35.82129 139.70174 4210 ft 216 kts 268°
2026-05-08 08:57 35.82120 139.68337 3989 ft 213 kts 269°
2026-05-08 08:58 35.82110 139.66499 3939 ft 208 kts 268°
2026-05-08 08:58 35.81791 139.64854 3894 ft 196 kts 238°
2026-05-08 08:58 35.80840 139.63785 3917 ft 200 kts 208°
2026-05-08 08:58 35.79422 139.63443 3934 ft 207 kts 184°
2026-05-08 08:59 35.77984 139.63560 3936 ft 211 kts 171°
2026-05-08 08:59 35.76620 139.64259 3973 ft 213 kts 155°
2026-05-08 08:59 35.75399 139.65186 4041 ft 195 kts 152°
2026-05-08 08:59 35.74302 139.66048 3910 ft 182 kts 153°
2026-05-08 09:00 35.73258 139.66844 3671 ft 175 kts 155°
2026-05-08 09:00 35.72210 139.67610 3455 ft 174 kts 156°
2026-05-08 09:00 35.71178 139.68349 3235 ft 173 kts 156°
2026-05-08 09:00 35.70137 139.69084 3022 ft 172 kts 157°
2026-05-08 09:01 35.69105 139.69812 2802 ft 171 kts 156°
2026-05-08 09:01 35.68090 139.70526 2623 ft 163 kts 157°
2026-05-08 09:01 35.67145 139.71197 2386 ft 150 kts 158°
2026-05-08 09:01 35.66254 139.71828 2184 ft 145 kts 158°
2026-05-08 09:02 35.65381 139.72441 1998 ft 142 kts 158°
2026-05-08 09:02 35.64529 139.73039 1809 ft 140 kts 158°
2026-05-08 09:02 35.63686 139.73634 1630 ft 140 kts 158°
2026-05-08 09:02 35.62846 139.74232 1455 ft 140 kts 157°
2026-05-08 09:03 35.62007 139.74861 1304 ft 140 kts 157°
2026-05-08 09:03 35.61162 139.75456 1111 ft 139 kts 158°
2026-05-08 09:03 35.60315 139.76035 924 ft 139 kts 157°
2026-05-08 09:03 35.59479 139.76622 692 ft 139 kts 156°
2026-05-08 09:04 35.58632 139.77202 515 ft 138 kts 155°
2026-05-08 09:04 35.57804 139.77797 359 ft 138 kts 155°
2026-05-08 09:04 35.56978 139.78387 162 ft 135 kts 155°
2026-05-08 09:04 35.56173 139.78955 27 ft 134 kts 154°
2026-05-08 09:05 35.55437 139.79469 9 ft 100 kts 149°
2026-05-08 09:05 35.54984 139.79794 9 ft 50 kts 150°
2026-05-08 09:05 35.54810 139.79897 9 ft 21 kts 165°
2026-05-08 09:05 35.54665 139.79927 9 ft 20 kts 176°
2026-05-08 09:06 35.54592 139.79903 9 ft 8 kts 237°
2026-05-08 09:06 35.54590 139.79828 9 ft 9 kts 301°
2026-05-08 09:06 35.54648 139.79774 9 ft 11 kts 329°
2026-05-08 09:06 35.54722 139.79724 9 ft 12 kts 331°
2026-05-08 09:07 35.54792 139.79668 9 ft 8 kts 308°
2026-05-08 09:07 35.54788 139.79599 10 ft 8 kts 240°
2026-05-08 09:07 35.54757 139.79536 11 ft 8 kts 238°
2026-05-08 09:07 35.54740 139.79501 12 ft 0 kts 238°
2026-05-08 09:08 35.54738 139.79498 12 ft 1 kts 239°
2026-05-08 09:08 35.54735 139.79483 12 ft 2 kts 283°
2026-05-08 09:08 35.54752 139.79463 13 ft 5 kts 328°
2026-05-08 09:08 35.54790 139.79436 13 ft 6 kts 330°
2026-05-08 09:09 35.54833 139.79405 14 ft 7 kts 330°
2026-05-08 09:09 35.54861 139.79385 14 ft 3 kts 330°
2026-05-08 09:09 35.54874 139.79375 14 ft 0 kts 330°
2026-05-08 09:09 35.54876 139.79375 14 ft 0 kts 330°